Wetterdaten: Freitag, 19.02.2010
Datum Zeit Temp. A. Feuchte A. Luftdruck Regen Wind Richtung Richtung Sonnenschein UV Solar Windben
19.02.2010 00:00 2,3 C 88 % 995,7 hPa 0,0 mm 1,6 km/h (1 Bft) SO 135 0 min 0 UV-I 0 W/m 9,7 km/h (2 Bft)
19.02.2010 00:10 2,5 C 88 % 995,5 hPa 0,0 mm 4,8 km/h (1 Bft) SO 135 0 min 0 UV-I 0 W/m 22,5 km/h (4 Bft)
19.02.2010 00:20 2,7 C 87 % 995,3 hPa 0,0 mm 3,2 km/h (1 Bft) S-SW 202 0 min 0 UV-I 0 W/m 16,1 km/h (3 Bft)
19.02.2010 00:30 2,9 C 86 % 995,4 hPa 0,0 mm 3,2 km/h (1 Bft) SO 135 0 min 0 UV-I 0 W/m 8,0 km/h (2 Bft)
19.02.2010 00:40 3,1 C 86 % 995,2 hPa 0,0 mm 3,2 km/h (1 Bft) SO 135 0 min 0 UV-I 0 W/m 11,3 km/h (2 Bft)
19.02.2010 00:50 3,2 C 85 % 995,2 hPa 0,0 mm 3,2 km/h (1 Bft) SO 135 0 min 0 UV-I 0 W/m 12,9 km/h (3 Bft)
19.02.2010 01:00 3,4 C 85 % 995,2 hPa 0,0 mm 4,8 km/h (1 Bft) SO 135 0 min 0 UV-I 0 W/m 12,9 km/h (3 Bft)
19.02.2010 01:10 3,6 C 84 % 995,1 hPa 0,0 mm 4,8 km/h (1 Bft) O-SO 112 0 min 0 UV-I 0 W/m 16,1 km/h (3 Bft)
19.02.2010 01:20 3,7 C 84 % 995,0 hPa 0,0 mm 3,2 km/h (1 Bft) S-SO 157 0 min 0 UV-I 0 W/m 16,1 km/h (3 Bft)
19.02.2010 01:30 3,7 C 84 % 994,9 hPa 0,0 mm 4,8 km/h (1 Bft) S-SO 157 0 min 0 UV-I 0 W/m 16,1 km/h (3 Bft)
19.02.2010 01:40 3,8 C 84 % 994,8 hPa 0,0 mm 4,8 km/h (1 Bft) O-SO 112 0 min 0 UV-I 0 W/m 22,5 km/h (4 Bft)
19.02.2010 01:50 3,8 C 83 % 994,6 hPa 0,0 mm 4,8 km/h (1 Bft) SO 135 0 min 0 UV-I 0 W/m 19,3 km/h (3 Bft)
19.02.2010 02:00 3,8 C 84 % 994,6 hPa 0,0 mm 6,4 km/h (2 Bft) S-SO 157 0 min 0 UV-I 0 W/m 16,1 km/h (3 Bft)
19.02.2010 02:10 3,8 C 83 % 994,5 hPa 0,0 mm 4,8 km/h (1 Bft) S-SO 157 0 min 0 UV-I 0 W/m 17,7 km/h (3 Bft)
19.02.2010 02:20 3,9 C 83 % 994,5 hPa 0,0 mm 4,8 km/h (1 Bft) SO 135 0 min 0 UV-I 0 W/m 20,9 km/h (4 Bft)
19.02.2010 02:30 3,9 C 83 % 994,4 hPa 0,0 mm 4,8 km/h (1 Bft) S-SO 157 0 min 0 UV-I 0 W/m 17,7 km/h (3 Bft)
19.02.2010 02:40 3,9 C 83 % 994,3 hPa 0,0 mm 3,2 km/h (1 Bft) S 180 0 min 0 UV-I 0 W/m 11,3 km/h (2 Bft)
19.02.2010 02:50 3,8 C 83 % 994,2 hPa 0,0 mm 1,6 km/h (1 Bft) SO 135 0 min 0 UV-I 0 W/m 8,0 km/h (2 Bft)
19.02.2010 03:00 3,7 C 83 % 994,0 hPa 0,0 mm 1,6 km/h (1 Bft) S-SO 157 0 min 0 UV-I 0 W/m 8,0 km/h (2 Bft)
19.02.2010 03:10 3,7 C 84 % 994,0 hPa 0,0 mm 1,6 km/h (1 Bft) O-SO 112 0 min 0 UV-I 0 W/m 6,4 km/h (2 Bft)
19.02.2010 03:20 3,6 C 84 % 994,0 hPa 0,0 mm 1,6 km/h (1 Bft) SO 135 0 min 0 UV-I 0 W/m 9,7 km/h (2 Bft)
19.02.2010 03:30 3,6 C 84 % 994,0 hPa 0,0 mm 3,2 km/h (1 Bft) S-SO 157 0 min 0 UV-I 0 W/m 8,0 km/h (2 Bft)
19.02.2010 03:40 3,6 C 84 % 993,9 hPa 0,0 mm 3,2 km/h (1 Bft) SO 135 0 min 0 UV-I 0 W/m 11,3 km/h (2 Bft)
19.02.2010 03:50 3,6 C 84 % 993,8 hPa 0,0 mm 3,2 km/h (1 Bft) S-SO 157 0 min 0 UV-I 0 W/m 8,0 km/h (2 Bft)
19.02.2010 04:00 3,6 C 85 % 993,7 hPa 0,0 mm 4,8 km/h (1 Bft) SO 135 0 min 0 UV-I 0 W/m 14,5 km/h (3 Bft)
19.02.2010 04:10 3,6 C 85 % 993,4 hPa 0,0 mm 4,8 km/h (1 Bft) SO 135 0 min 0 UV-I 0 W/m 16,1 km/h (3 Bft)
19.02.2010 04:20 3,6 C 85 % 993,2 hPa 0,0 mm 4,8 km/h (1 Bft) SO 135 0 min 0 UV-I 0 W/m 16,1 km/h (3 Bft)
19.02.2010 04:30 3,5 C 85 % 993,1 hPa 0,0 mm 3,2 km/h (1 Bft) O 90 0 min 0 UV-I 0 W/m 11,3 km/h (2 Bft)
19.02.2010 04:40 3,4 C 85 % 993,1 hPa 0,0 mm 4,8 km/h (1 Bft) O-SO 112 0 min 0 UV-I 0 W/m 11,3 km/h (2 Bft)
19.02.2010 04:50 3,4 C 85 % 993,0 hPa 0,0 mm 3,2 km/h (1 Bft) O-SO 112 0 min 0 UV-I 0 W/m 11,3 km/h (2 Bft)
19.02.2010 05:00 3,3 C 86 % 992,9 hPa 0,0 mm 3,2 km/h (1 Bft) SO 135 0 min 0 UV-I 0 W/m 14,5 km/h (3 Bft)
19.02.2010 05:10 3,3 C 86 % 992,9 hPa 0,0 mm 1,6 km/h (1 Bft) SO 135 0 min 0 UV-I 0 W/m 6,4 km/h (2 Bft)
19.02.2010 05:20 3,3 C 86 % 992,9 hPa 0,0 mm 1,6 km/h (1 Bft) O-SO 112 0 min 0 UV-I 0 W/m 9,7 km/h (2 Bft)
19.02.2010 05:30 3,3 C 86 % 992,9 hPa 0,0 mm 1,6 km/h (1 Bft) SO 135 0 min 0 UV-I 0 W/m 9,7 km/h (2 Bft)
19.02.2010 05:40 3,2 C 86 % 992,8 hPa 0,0 mm 1,6 km/h (1 Bft) S-SO 157 0 min 0 UV-I 0 W/m 9,7 km/h (2 Bft)
19.02.2010 05:50 3,2 C 86 % 992,7 hPa 0,0 mm 1,6 km/h (1 Bft) SO 135 0 min 0 UV-I 0 W/m 8,0 km/h (2 Bft)
19.02.2010 06:00 3,1 C 86 % 992,5 hPa 0,0 mm 1,6 km/h (1 Bft) O-SO 112 0 min 0 UV-I 0 W/m 6,4 km/h (2 Bft)
19.02.2010 06:10 3,0 C 86 % 992,3 hPa 0,0 mm 3,2 km/h (1 Bft) O-SO 112 0 min 0 UV-I 0 W/m 6,4 km/h (2 Bft)
19.02.2010 06:20 2,9 C 86 % 992,2 hPa 0,0 mm 1,6 km/h (1 Bft) SO 135 0 min 0 UV-I 0 W/m 6,4 km/h (2 Bft)
19.02.2010 06:30 2,9 C 86 % 992,2 hPa 0,0 mm 0,0 km/h (0 Bft) S 180 0 min 0 UV-I 0 W/m 4,8 km/h (1 Bft)
19.02.2010 06:40 2,8 C 86 % 992,1 hPa 0,0 mm 0,0 km/h (0 Bft) O-SO 112 0 min 0 UV-I 0 W/m 4,8 km/h (1 Bft)
19.02.2010 06:50 2,8 C 87 % 992,0 hPa 0,0 mm 0,0 km/h (0 Bft) SO 135 0 min 0 UV-I 0 W/m 8,0 km/h (2 Bft)
19.02.2010 07:00 2,8 C 87 % 991,8 hPa 0,0 mm 1,6 km/h (1 Bft) O-SO 112 0 min 0 UV-I 0 W/m 6,4 km/h (2 Bft)
19.02.2010 07:10 2,8 C 87 % 991,7 hPa 0,0 mm 1,6 km/h (1 Bft) SO 135 0 min 0 UV-I 0 W/m 9,7 km/h (2 Bft)
19.02.2010 07:20 2,8 C 87 % 991,7 hPa 0,0 mm 0,0 km/h (0 Bft) O-SO 112 0 min 0 UV-I 0 W/m 4,8 km/h (1 Bft)
19.02.2010 07:30 2,8 C 87 % 991,7 hPa 0,0 mm 1,6 km/h (1 Bft) O-SO 112 0 min 0 UV-I 0 W/m 4,8 km/h (1 Bft)
19.02.2010 07:40 2,8 C 87 % 991,7 hPa 0,0 mm 0,0 km/h (0 Bft) SO 135 0 min 0 UV-I 7 W/m 4,8 km/h (1 Bft)
19.02.2010 07:50 2,7 C 88 % 991,5 hPa 0,0 mm 0,0 km/h (0 Bft) SO 135 10 min 0 UV-I 18 W/m 4,8 km/h (1 Bft)
19.02.2010 08:00 2,7 C 88 % 991,4 hPa 0,0 mm 1,3 km/h (1 Bft) O-SO 105 0 min 0 UV-I 26 W/m 6,4 km/h (2 Bft)
19.02.2010 08:10 2,7 C 88 % 991,3 hPa 0,0 mm 1,6 km/h (1 Bft) O-SO 112 0 min 0 UV-I 35 W/m 9,7 km/h (2 Bft)
19.02.2010 08:20 2,7 C 88 % 991,5 hPa 0,0 mm 3,2 km/h (1 Bft) O-SO 112 0 min 0 UV-I 53 W/m 11,3 km/h (2 Bft)
19.02.2010 08:30 2,9 C 89 % 991,6 hPa 0,0 mm 1,6 km/h (1 Bft) O-SO 112 0 min 0 UV-I 53 W/m 8,0 km/h (2 Bft)
19.02.2010 08:40 3,0 C 89 % 991,5 hPa 0,0 mm 1,6 km/h (1 Bft) S 180 0 min 0 UV-I 77 W/m 6,4 km/h (2 Bft)
19.02.2010 08:50 3,1 C 89 % 991,5 hPa 0,0 mm 1,6 km/h (1 Bft) SO 135 10 min 0 UV-I 114 W/m 9,7 km/h (2 Bft)
19.02.2010 09:00 3,3 C 89 % 991,5 hPa 0,0 mm 3,2 km/h (1 Bft) S-SO 157 10 min 0 UV-I 134 W/m 9,7 km/h (2 Bft)
19.02.2010 09:10 3,9 C 86 % 991,4 hPa 0,0 mm 3,2 km/h (1 Bft) SO 135 10 min 1 UV-I 137 W/m 9,7 km/h (2 Bft)
19.02.2010 09:20 4,3 C 84 % 991,5 hPa 0,0 mm 3,2 km/h (1 Bft) S 180 10 min 1 UV-I 156 W/m 14,5 km/h (3 Bft)
19.02.2010 09:30 4,6 C 84 % 991,4 hPa 0,0 mm 3,2 km/h (1 Bft) S 180 10 min 1 UV-I 199 W/m 14,5 km/h (3 Bft)
19.02.2010 09:40 4,8 C 83 % 991,5 hPa 0,0 mm 1,6 km/h (1 Bft) S 180 10 min 1 UV-I 162 W/m 6,4 km/h (2 Bft)
19.02.2010 09:50 4,8 C 82 % 991,5 hPa 0,0 mm 1,6 km/h (1 Bft) S-SO 157 0 min 1 UV-I 137 W/m 8,0 km/h (2 Bft)
19.02.2010 10:00 4,9 C 82 % 991,6 hPa 0,0 mm 1,6 km/h (1 Bft) S-SW 202 0 min 1 UV-I 137 W/m 8,0 km/h (2 Bft)
19.02.2010 10:10 5,0 C 82 % 991,5 hPa 0,0 mm 1,6 km/h (1 Bft) S-SO 157 0 min 1 UV-I 144 W/m 4,8 km/h (1 Bft)
19.02.2010 10:20 5,1 C 81 % 991,4 hPa 0,0 mm 1,6 km/h (1 Bft) S 180 0 min 1 UV-I 156 W/m 6,4 km/h (2 Bft)
19.02.2010 10:30 5,3 C 81 % 991,4 hPa 0,0 mm 1,6 km/h (1 Bft) S 180 0 min 1 UV-I 158 W/m 6,4 km/h (2 Bft)
19.02.2010 10:40 5,5 C 80 % 991,4 hPa 0,0 mm 1,6 km/h (1 Bft) S-SO 157 0 min 1 UV-I 167 W/m 6,4 km/h (2 Bft)
19.02.2010 10:50 5,9 C 78 % 991,5 hPa 0,0 mm 1,6 km/h (1 Bft) S 180 0 min 1 UV-I 153 W/m 6,4 km/h (2 Bft)
19.02.2010 11:00 6,3 C 77 % 991,6 hPa 0,0 mm 1,6 km/h (1 Bft) S-SW 202 0 min 1 UV-I 160 W/m 8,0 km/h (2 Bft)
19.02.2010 11:10 6,3 C 77 % 991,6 hPa 0,0 mm 1,6 km/h (1 Bft) S 180 0 min 1 UV-I 149 W/m 8,0 km/h (2 Bft)
19.02.2010 11:20 6,5 C 75 % 991,5 hPa 0,0 mm 1,6 km/h (1 Bft) S-SW 202 0 min 1 UV-I 149 W/m 9,7 km/h (2 Bft)
19.02.2010 11:30 6,6 C 75 % 991,5 hPa 0,0 mm 1,6 km/h (1 Bft) S-SW 202 0 min 1 UV-I 156 W/m 6,4 km/h (2 Bft)
19.02.2010 11:40 6,8 C 74 % 991,3 hPa 0,0 mm 1,6 km/h (1 Bft) S-SW 202 0 min 1 UV-I 216 W/m 8,0 km/h (2 Bft)
19.02.2010 11:50 7,0 C 74 % 991,1 hPa 0,0 mm 1,6 km/h (1 Bft) W-SW 247 10 min 2 UV-I 343 W/m 6,4 km/h (2 Bft)
19.02.2010 12:00 7,3 C 72 % 991,1 hPa 0,0 mm 1,6 km/h (1 Bft) SW 225 10 min 1 UV-I 302 W/m 8,0 km/h (2 Bft)
19.02.2010 12:10 7,4 C 72 % 990,9 hPa 0,0 mm 1,6 km/h (1 Bft) SW 225 10 min 1 UV-I 325 W/m 6,4 km/h (2 Bft)
19.02.2010 12:20 7,6 C 71 % 990,8 hPa 0,0 mm 1,6 km/h (1 Bft) SW 225 10 min 2 UV-I 343 W/m 8,0 km/h (2 Bft)
19.02.2010 12:30 7,6 C 71 % 990,7 hPa 0,0 mm 1,6 km/h (1 Bft) SW 225 0 min 1 UV-I 186 W/m 8,0 km/h (2 Bft)
19.02.2010 12:40 7,4 C 72 % 990,5 hPa 0,0 mm 1,6 km/h (1 Bft) SW 225 0 min 1 UV-I 139 W/m 4,8 km/h (1 Bft)
19.02.2010 12:50 7,3 C 72 % 990,5 hPa 0,0 mm 1,6 km/h (1 Bft) SW 225 0 min 1 UV-I 188 W/m 8,0 km/h (2 Bft)
19.02.2010 13:00 7,2 C 72 % 990,2 hPa 0,0 mm 3,2 km/h (1 Bft) W-SW 247 0 min 1 UV-I 128 W/m 8,0 km/h (2 Bft)
19.02.2010 13:10 7,2 C 72 % 990,1 hPa 0,0 mm 1,6 km/h (1 Bft) W 270 0 min 1 UV-I 128 W/m 9,7 km/h (2 Bft)
19.02.2010 13:20 7,2 C 71 % 990,0 hPa 0,0 mm 1,6 km/h (1 Bft) SW 225 0 min 1 UV-I 139 W/m 6,4 km/h (2 Bft)
19.02.2010 13:30 7,2 C 71 % 989,9 hPa 0,0 mm 1,6 km/h (1 Bft) SW 225 10 min 1 UV-I 313 W/m 8,0 km/h (2 Bft)
19.02.2010 13:40 7,7 C 69 % 989,9 hPa 0,0 mm 1,6 km/h (1 Bft) W-SW 247 10 min 1 UV-I 367 W/m 8,0 km/h (2 Bft)
19.02.2010 13:50 7,8 C 68 % 989,8 hPa 0,0 mm 3,2 km/h (1 Bft) W 270 10 min 1 UV-I 334 W/m 11,3 km/h (2 Bft)
19.02.2010 14:00 7,7 C 67 % 989,8 hPa 0,0 mm 3,2 km/h (1 Bft) SW 225 10 min 1 UV-I 234 W/m 9,7 km/h (2 Bft)
19.02.2010 14:10 7,6 C 67 % 989,7 hPa 0,0 mm 3,2 km/h (1 Bft) SW 225 0 min 1 UV-I 213 W/m 11,3 km/h (2 Bft)
19.02.2010 14:20 7,6 C 66 % 989,6 hPa 0,0 mm 3,2 km/h (1 Bft) W-SW 247 0 min 1 UV-I 211 W/m 9,7 km/h (2 Bft)
19.02.2010 14:30 7,7 C 66 % 989,6 hPa 0,0 mm 3,2 km/h (1 Bft) S-SW 202 10 min 1 UV-I 292 W/m 8,0 km/h (2 Bft)
19.02.2010 14:40 7,8 C 66 % 989,6 hPa 0,0 mm 3,2 km/h (1 Bft) SW 225 10 min 1 UV-I 376 W/m 8,0 km/h (2 Bft)
19.02.2010 14:50 7,8 C 66 % 989,6 hPa 0,0 mm 3,2 km/h (1 Bft) W-SW 247 0 min 1 UV-I 197 W/m 9,7 km/h (2 Bft)
19.02.2010 15:00 7,5 C 67 % 989,6 hPa 0,0 mm 3,2 km/h (1 Bft) W 270 0 min 1 UV-I 142 W/m 8,0 km/h (2 Bft)
19.02.2010 15:10 7,4 C 66 % 989,6 hPa 0,0 mm 3,2 km/h (1 Bft) SW 225 0 min 1 UV-I 169 W/m 9,7 km/h (2 Bft)
19.02.2010 15:20 7,4 C 64 % 989,6 hPa 0,0 mm 3,2 km/h (1 Bft) SW 225 0 min 1 UV-I 167 W/m 9,7 km/h (2 Bft)
19.02.2010 15:30 7,4 C 64 % 989,5 hPa 0,0 mm 1,6 km/h (1 Bft) SW 225 10 min 1 UV-I 195 W/m 12,9 km/h (3 Bft)
19.02.2010 15:40 7,6 C 63 % 989,6 hPa 0,0 mm 3,2 km/h (1 Bft) W-SW 247 10 min 1 UV-I 345 W/m 11,3 km/h (2 Bft)
19.02.2010 15:50 7,8 C 61 % 989,6 hPa 0,0 mm 4,8 km/h (1 Bft) SW 225 10 min 1 UV-I 251 W/m 14,5 km/h (3 Bft)
19.02.2010 16:00 7,3 C 62 % 989,7 hPa 0,0 mm 4,4 km/h (1 Bft) NW 311 0 min 0 UV-I 68 W/m 11,3 km/h (2 Bft)
19.02.2010 16:10 7,2 C 66 % 990,0 hPa 0,0 mm 9,7 km/h (2 Bft) W-SW 247 0 min 0 UV-I 69 W/m 33,8 km/h (5 Bft)
19.02.2010 16:20 6,3 C 73 % 990,2 hPa 0,0 mm 9,7 km/h (2 Bft) W 270 0 min 0 UV-I 95 W/m 27,4 km/h (4 Bft)
19.02.2010 16:30 5,6 C 74 % 990,3 hPa 0,0 mm 6,4 km/h (2 Bft) W 270 0 min 0 UV-I 90 W/m 19,3 km/h (3 Bft)
19.02.2010 16:40 5,3 C 74 % 990,3 hPa 0,0 mm 9,7 km/h (2 Bft) W-SW 247 0 min 0 UV-I 42 W/m 24,1 km/h (4 Bft)
19.02.2010 16:50 5,1 C 74 % 990,3 hPa 0,0 mm 4,8 km/h (1 Bft) W-SW 247 0 min 0 UV-I 21 W/m 20,9 km/h (4 Bft)
19.02.2010 17:00 5,0 C 74 % 990,5 hPa 0,0 mm 4,8 km/h (1 Bft) W-SW 247 0 min 0 UV-I 19 W/m 19,3 km/h (3 Bft)
19.02.2010 17:10 4,9 C 74 % 990,6 hPa 0,0 mm 8,0 km/h (2 Bft) W-SW 247 0 min 0 UV-I 18 W/m 20,9 km/h (4 Bft)
19.02.2010 17:20 4,8 C 74 % 990,8 hPa 0,0 mm 6,4 km/h (2 Bft) W 270 0 min 0 UV-I 16 W/m 17,7 km/h (3 Bft)
19.02.2010 17:30 4,7 C 74 % 990,9 hPa 0,0 mm 4,8 km/h (1 Bft) W-SW 247 0 min 0 UV-I 11 W/m 19,3 km/h (3 Bft)
19.02.2010 17:40 4,6 C 75 % 991,0 hPa 0,0 mm 4,8 km/h (1 Bft) W-SW 247 0 min 0 UV-I 11 W/m 16,1 km/h (3 Bft)
19.02.2010 17:50 4,5 C 75 % 991,0 hPa 0,0 mm 4,8 km/h (1 Bft) W-SW 247 0 min 0 UV-I 9 W/m 16,1 km/h (3 Bft)
19.02.2010 18:00 4,4 C 75 % 991,3 hPa 0,0 mm 6,4 km/h (2 Bft) W 270 0 min 0 UV-I 5 W/m 17,7 km/h (3 Bft)
19.02.2010 18:10 4,2 C 74 % 991,4 hPa 0,0 mm 6,4 km/h (2 Bft) W-SW 247 0 min 0 UV-I 0 W/m 19,3 km/h (3 Bft)
19.02.2010 18:20 4,1 C 74 % 991,6 hPa 0,0 mm 1,6 km/h (1 Bft) W-SW 247 0 min 0 UV-I 0 W/m 11,3 km/h (2 Bft)
19.02.2010 18:30 3,9 C 74 % 991,7 hPa 0,0 mm 3,2 km/h (1 Bft) SW 225 0 min 0 UV-I 0 W/m 11,3 km/h (2 Bft)
19.02.2010 18:40 3,7 C 74 % 991,6 hPa 0,0 mm 3,2 km/h (1 Bft) W-SW 247 0 min 0 UV-I 0 W/m 9,7 km/h (2 Bft)
19.02.2010 18:50 3,6 C 74 % 991,8 hPa 0,0 mm 3,2 km/h (1 Bft) SW 225 0 min 0 UV-I 0 W/m 16,1 km/h (3 Bft)
19.02.2010 19:00 3,3 C 74 % 991,8 hPa 0,0 mm 4,8 km/h (1 Bft) W-SW 247 0 min 0 UV-I 0 W/m 16,1 km/h (3 Bft)
19.02.2010 19:10 3,2 C 74 % 991,9 hPa 0,0 mm 6,4 km/h (2 Bft) W-SW 247 0 min 0 UV-I 0 W/m 20,9 km/h (4 Bft)
19.02.2010 19:20 3,1 C 75 % 991,9 hPa 0,0 mm 6,4 km/h (2 Bft) W-SW 247 0 min 0 UV-I 0 W/m 14,5 km/h (3 Bft)
19.02.2010 19:30 2,9 C 75 % 992,0 hPa 0,0 mm 4,8 km/h (1 Bft) W-SW 247 0 min 0 UV-I 0 W/m 11,3 km/h (2 Bft)
19.02.2010 19:40 2,9 C 76 % 992,0 hPa 0,0 mm 4,8 km/h (1 Bft) W-SW 247 0 min 0 UV-I 0 W/m 16,1 km/h (3 Bft)
19.02.2010 19:50 2,9 C 77 % 992,1 hPa 0,0 mm 4,8 km/h (1 Bft) W-SW 247 0 min 0 UV-I 0 W/m 14,5 km/h (3 Bft)
19.02.2010 20:00 2,9 C 78 % 992,3 hPa 0,0 mm 6,4 km/h (2 Bft) W-SW 247 0 min 0 UV-I 0 W/m 27,4 km/h (4 Bft)
19.02.2010 20:10 2,9 C 79 % 992,4 hPa 0,0 mm 8,0 km/h (2 Bft) W-SW 247 0 min 0 UV-I 0 W/m 17,7 km/h (3 Bft)
19.02.2010 20:20 2,9 C 80 % 992,4 hPa 0,0 mm 6,4 km/h (2 Bft) W 270 0 min 0 UV-I 0 W/m 20,9 km/h (4 Bft)
19.02.2010 20:30 2,9 C 81 % 992,6 hPa 0,0 mm 6,4 km/h (2 Bft) W-SW 247 0 min 0 UV-I 0 W/m 14,5 km/h (3 Bft)
19.02.2010 20:40 2,8 C 81 % 992,7 hPa 0,0 mm 6,4 km/h (2 Bft) W-SW 247 0 min 0 UV-I 0 W/m 17,7 km/h (3 Bft)
19.02.2010 20:50 2,8 C 82 % 992,8 hPa 0,0 mm 6,4 km/h (2 Bft) W 270 0 min 0 UV-I 0 W/m 16,1 km/h (3 Bft)
19.02.2010 21:00 2,7 C 82 % 993,0 hPa 0,0 mm 6,4 km/h (2 Bft) W-SW 247 0 min 0 UV-I 0 W/m 14,5 km/h (3 Bft)
19.02.2010 21:10 2,7 C 82 % 993,0 hPa 0,0 mm 8,0 km/h (2 Bft) W-SW 247 0 min 0 UV-I 0 W/m 20,9 km/h (4 Bft)
19.02.2010 21:20 2,6 C 82 % 993,2 hPa 0,0 mm 8,0 km/h (2 Bft) W-SW 247 0 min 0 UV-I 0 W/m 20,9 km/h (4 Bft)
19.02.2010 21:30 2,6 C 82 % 993,2 hPa 0,0 mm 6,4 km/h (2 Bft) W-SW 247 0 min 0 UV-I 0 W/m 20,9 km/h (4 Bft)
19.02.2010 21:40 2,4 C 82 % 993,4 hPa 0,0 mm 8,0 km/h (2 Bft) W 270 0 min 0 UV-I 0 W/m 20,9 km/h (4 Bft)
19.02.2010 21:50 2,4 C 82 % 993,4 hPa 0,0 mm 8,0 km/h (2 Bft) W-SW 247 0 min 0 UV-I 0 W/m 22,5 km/h (4 Bft)
19.02.2010 22:00 2,4 C 82 % 993,5 hPa 0,0 mm 6,4 km/h (2 Bft) W-SW 247 0 min 0 UV-I 0 W/m 19,3 km/h (3 Bft)
19.02.2010 22:10 2,4 C 82 % 993,6 hPa 0,0 mm 8,0 km/h (2 Bft) W-SW 247 0 min 0 UV-I 0 W/m 20,9 km/h (4 Bft)
19.02.2010 22:20 2,3 C 82 % 993,7 hPa 0,0 mm 6,4 km/h (2 Bft) W-SW 247 0 min 0 UV-I 0 W/m 19,3 km/h (3 Bft)
19.02.2010 22:30 2,3 C 82 % 993,8 hPa 0,0 mm 6,4 km/h (2 Bft) W-SW 247 0 min 0 UV-I 0 W/m 17,7 km/h (3 Bft)
19.02.2010 22:40 2,3 C 82 % 993,9 hPa 0,0 mm 6,4 km/h (2 Bft) W-SW 247 0 min 0 UV-I 0 W/m 17,7 km/h (3 Bft)
19.02.2010 22:50 2,3 C 82 % 994,0 hPa 0,0 mm 4,8 km/h (1 Bft) W-SW 247 0 min 0 UV-I 0 W/m 11,3 km/h (2 Bft)
19.02.2010 23:00 2,3 C 82 % 994,0 hPa 0,0 mm 4,8 km/h (1 Bft) W-SW 247 0 min 0 UV-I 0 W/m 11,3 km/h (2 Bft)
19.02.2010 23:10 2,3 C 82 % 994,1 hPa 0,0 mm 4,8 km/h (1 Bft) W-SW 247 0 min 0 UV-I 0 W/m 17,7 km/h (3 Bft)
19.02.2010 23:20 2,2 C 82 % 994,1 hPa 0,0 mm 4,8 km/h (1 Bft) W-SW 247 0 min 0 UV-I 0 W/m 14,5 km/h (3 Bft)
19.02.2010 23:30 2,2 C 82 % 994,3 hPa 0,0 mm 4,8 km/h (1 Bft) W-SW 247 0 min 0 UV-I 0 W/m 14,5 km/h (3 Bft)
19.02.2010 23:40 2,2 C 82 % 994,4 hPa 0,0 mm 4,8 km/h (1 Bft) W-SW 247 0 min 0 UV-I 0 W/m 17,7 km/h (3 Bft)
19.02.2010 23:50 2,1 C 82 % 994,6 hPa 0,0 mm 6,4 km/h (2 Bft) W-SW 247 0 min 0 UV-I 0 W/m 19,3 km/h (3 Bft)
_ Min-Zeit 23:40 15:50 15:30 - 06:30 - - - - - 06:30
Minimum _ 2,1 C 61 % 989,5 hPa - 0,0 km/h (0 Bft) - - - - - 4,8 km/h (1 Bft)
_ Max-Zeit 14:40 08:30 00:00 00:00 16:10 - - 07:50 11:50 14:40 16:10
Maximum _ 7,9 C 89 % 995,7 hPa 0,0 mm 9,7 km/h
W-SW (2 Bft)
- - 10 min 2 UV-I 376 W/m 33,8 km/h
S-SW (5 Bft)
Durchschnitt _ 4,3 C 79 % 992,2 hPa #0,0 mm 3,7 km/h (1 Bft) W-SW - #3:20 h 1 UV-I 152 W/m 12,6 km/h (3 Bft)